sat.trackr.live / text

‹ back to catalog

STARLINK-35371

NORAD 66484 · 2025-262AE

PAYLOAD ACTIVE UNKNOWN

§ Identity

Operator
Country
US
Launch date
2025-11-15
Launch site
AFETR
Launch vehicle
Mass (kg)
RCS (m²)

Purposes: comms

External: N2YO · Heavens-Above · Gunter

§ Orbital elements

Epoch: 2026-05-24T14:48:43.600320Z

Period
94.27 min
Inclination
43.0019°
Eccentricity
0.0001567
Mean motion
15.27597272 rev/d
Perigee alt
481.9 km
Apogee alt
484.1 km
Semi-major
6,861.1 km
B*
5.7483e-4
RAAN
227.7892°
Arg perigee
269.2443°
Mean anomaly
90.8229°
Rev number
3,051

§ Raw data

STARLINK-353711 66484U 25262AE  26144.61717130  .00015598  00000+0  57483-3 0  99952 66484  43.0019 227.7892 0001567 269.2443  90.8229 15.27597272 30519

JSON: /api/v1/satellites/66484 · /tle

For live sub-satellite position, see the globe view (requires WebGL).

§ Visibility from observer

Set your observer location to see the next 7 days of passes ≥ 10°. The values pass through the URL so the page stays shareable.

No JS? Fill the form by hand. The geolocation button needs JavaScript.